Santa Fe, NM

3:32 PM MST on December 07, 2016 (GMT -0700)
Santa Fe Municipal

Weather History for KSAF - March, 2014

Change the Weather History Date:

Friday, March 28, 2014

  Actual Average Record
Temperature  
Mean Temperature 46 °F -  
Max Temperature 62 °F 0 °F 77 °F (2015)
Min Temperature 30 °F - 19 °F (2009)
Degree Days  
Heating Degree Days 20    
Moisture  
Dew Point 13 °F    
Average Humidity 30    
Maximum Humidity 59    
Minimum Humidity 12    
Precipitation  
Precipitation 0.00 in - - ()
Sea Level Pressure  
Sea Level Pressure 29.94 in    
Wind  
Wind Speed 8 mph (NW)    
Max Wind Speed 20 mph    
Max Gust Speed 29 mph    
Visibility 10 miles    
Events      
Averages and records for this station are not official NWS values.
T = Trace of Precipitation, MM = Missing Value Source: NWS Daily Summary

Daily Weather History Graph

Daily Weather History Graph

Search for Another Location

Airport or City:

Trip Planner

Search our weather history database for the weather conditions in past years. The results will help you decide how hot, cold, wet, or windy it might be!

Date:

Astronomy

Mar. 28, 2014 Rise Set
Actual Time 6:56 AM MDT 7:22 PM MDT
Civil Twilight 6:30 AM MDT 7:48 PM MDT
Nautical Twilight 6:00 AM MDT 8:18 PM MDT
Astronomical Twilight 5:30 AM MDT 8:49 PM MDT
Moon 5:24 AM MDT (3/28) 5:25 PM MDT (3/28)
Length of Visible Light 13h 17m
Length of Day
12h 26m
Waning Crescent, 6% of the Moon is Illuminated
Mar 28
Waning Crescent
Mar 30
New
Apr 7
First Quarter
Apr 15
Full
Apr 22
Last Quarter

Hourly Weather History & Observations

Time (MDT) Temp. Windchill Dew Point Humidity Pressure Visibility Wind Dir Wind Speed Gust Speed Precip Events Conditions
12:53 AM 39.9 °F 37.8 °F 17.1 °F 40% 29.80 in 10.0 mi NNW 3.5 mph - N/A   Clear
1:53 AM 36.0 °F 31.1 °F 16.0 °F 44% 29.81 in 10.0 mi NW 5.8 mph - N/A   Clear
2:53 AM 35.1 °F 30.1 °F 16.0 °F 46% 29.81 in 10.0 mi NW 5.8 mph - N/A   Partly Cloudy
3:53 AM 35.1 °F 27.9 °F 17.1 °F 48% 29.81 in 10.0 mi WNW 9.2 mph - N/A   Clear
4:53 AM 36.0 °F 29.0 °F 17.1 °F 46% 29.82 in 10.0 mi WNW 9.2 mph - N/A   Clear
5:53 AM 37.0 °F 29.8 °F 18.0 °F 46% 29.85 in 10.0 mi NW 10.4 mph - N/A   Clear
6:53 AM 30.0 °F 25.2 °F 17.1 °F 59% 29.90 in 10.0 mi North 4.6 mph - N/A   Clear
7:53 AM 37.0 °F 33.3 °F 19.0 °F 48% 29.93 in 10.0 mi NNW 4.6 mph - N/A   Clear
8:53 AM 45.0 °F - 19.0 °F 36% 29.93 in 10.0 mi Calm Calm - N/A   Clear
9:53 AM 48.9 °F - 19.0 °F 31% 29.94 in 10.0 mi NNE 10.4 mph 17.3 mph N/A   Clear
10:53 AM 52.0 °F - 18.0 °F 26% 29.95 in 10.0 mi North 12.7 mph - N/A   Clear
11:53 AM 52.0 °F - 17.1 °F 25% 29.96 in 10.0 mi West 6.9 mph - N/A   Scattered Clouds
12:53 PM 53.1 °F - 15.1 °F 22% 29.94 in 10.0 mi West 6.9 mph 23.0 mph N/A   Partly Cloudy
1:53 PM 55.0 °F - 12.9 °F 19% 29.94 in 10.0 mi Variable 3.5 mph - N/A   Clear
2:53 PM 59.0 °F - 8.1 °F 13% 29.91 in 10.0 mi West 9.2 mph - N/A   Partly Cloudy
3:53 PM 61.0 °F - 7.0 °F 12% 29.90 in 10.0 mi West 18.4 mph 23.0 mph N/A   Clear
4:53 PM 60.1 °F - 7.0 °F 12% 29.92 in 10.0 mi West 19.6 mph 28.8 mph N/A   Clear
5:53 PM 57.9 °F - 7.0 °F 13% 29.94 in 10.0 mi West 17.3 mph 25.3 mph N/A   Clear
6:53 PM 55.0 °F - 6.1 °F 14% 30.01 in 10.0 mi West 17.3 mph - N/A   Clear
7:53 PM 50.0 °F - 6.1 °F 17% 30.04 in 10.0 mi West 11.5 mph - N/A   Clear
8:53 PM 46.9 °F - 6.1 °F 19% 30.05 in 10.0 mi WNW 9.2 mph - N/A   Clear
9:53 PM 41.0 °F 36.4 °F 8.1 °F 26% 30.09 in 10.0 mi North 6.9 mph - N/A   Clear
10:53 PM 42.1 °F 37.7 °F 10.0 °F 27% 30.09 in 10.0 mi NE 6.9 mph - N/A   Clear
11:53 PM 37.0 °F 31.0 °F 10.9 °F 34% 30.13 in 10.0 mi North 8.1 mph - N/A   Clear